Weather History for Istanbul / Sabiha Gokcen, TR

Change the Weather History Date:

Thursday, January 30, 2014

  Actual Average (LTBA) Record (LTBA)
Temperature  
Mean Temperature 34 °F -  
Max Temperature 37 °F 45 °F 62 °F (2001)
Min Temperature 32 °F 36 °F 24 °F (2012)
Degree Days  
Heating Degree Days 30    
Moisture  
Dew Point 29 °F    
Average Humidity 79    
Maximum Humidity 87    
Minimum Humidity 65    
Precipitation  
Precipitation 0.00 in - - ()
Sea Level Pressure  
Sea Level Pressure 30.34 in    
Wind  
Wind Speed 11 mph ()    
Max Wind Speed 16 mph    
Max Gust Speed -    
Visibility 6.3 miles    
Events Rain    
Averages and records for this station are not official NWS values.
T = Trace of Precipitation, MM = Missing Value Source: Averaged Metar Reports

Daily Weather History Graph

Daily Weather History Graph

Search for Another Location

Airport:

Trip Planner

Search our weather history database for the weather conditions in past years. The results will help you decide how hot, cold, wet, or windy it might be!

Date:

Astronomy

Jan. 30, 2014 Rise Set
Actual Time 7:15 AM EET 5:17 PM EET
Civil Twilight 6:46 AM EET 5:46 PM EET
Nautical Twilight 6:13 AM EET 6:19 PM EET
Astronomical Twilight 5:40 AM EET 6:51 PM EET
Moon 6:25 AM EET (1/30) 5:05 PM EET (1/30)
Length of Visible Light 11h 00m
Length of Day
10h 01m
Waning Crescent, 0% of the Moon is Illuminated
Jan 30
Waning Crescent
Jan 30
New
Feb 6
First Quarter
Feb 15
Full
Feb 22
Last Quarter

Hourly Weather History & Observations

Time (EET) Temp. Windchill Dew Point Humidity Pressure Visibility Wind Dir Wind Speed Gust Speed Precip Events Conditions
12:01 AM 39.2 °F 33.6 °F 33.8 °F 81% 30.04 in 6.2 mi North 8.1 mph - N/A Rain Light Rain Showers
12:20 AM 37.4 °F 30.8 °F 33.8 °F 87% 30.06 in 6.2 mi North 9.2 mph - N/A Rain Light Rain Showers
12:44 AM 37.4 °F 30.3 °F 32.0 °F 81% 30.06 in 6.2 mi North 10.4 mph - N/A   Mostly Cloudy
12:50 AM 37.4 °F 30.3 °F 32.0 °F 81% 30.06 in 6.2 mi North 10.4 mph - N/A   Mostly Cloudy
1:20 AM 35.6 °F 27.1 °F 30.2 °F 81% 30.09 in 6.2 mi North 12.7 mph - N/A   Mostly Cloudy
1:50 AM 35.6 °F 28.6 °F 30.2 °F 81% 30.12 in 6.2 mi NNE 9.2 mph - N/A   Mostly Cloudy
2:00 AM 36 °F - 31 °F 73% 30.14 in 6 mi NNE 9.2 mph - -   Partly Cloudy
2:20 AM 35.6 °F 28.0 °F 30.2 °F 81% 30.15 in 6.2 mi North 10.4 mph - N/A   Mostly Cloudy
2:50 AM 35.6 °F 28.0 °F 30.2 °F 81% 30.15 in 6.2 mi North 10.4 mph - N/A   Mostly Cloudy
3:20 AM 35.6 °F 27.5 °F 28.4 °F 75% 30.18 in 6.2 mi North 11.5 mph - N/A   Mostly Cloudy
3:50 AM 33.8 °F 24.8 °F 28.4 °F 81% 30.18 in 6.2 mi North 12.7 mph - N/A   Mostly Cloudy
4:20 AM 33.8 °F 24.8 °F 28.4 °F 81% 30.21 in 6.2 mi NNE 12.7 mph - N/A   Mostly Cloudy
4:50 AM 33.8 °F 23.9 °F 28.4 °F 81% 30.21 in 6.2 mi NNE 15.0 mph - N/A   Mostly Cloudy
5:00 AM 33 °F - 29 °F 77% 30.25 in 12 mi NNE 15.0 mph - -   Mostly Cloudy
5:20 AM 32.0 °F 21.6 °F 28.4 °F 87% 30.24 in 6.2 mi North 15.0 mph - N/A   Mostly Cloudy
5:50 AM 32.0 °F 23.0 °F 28.4 °F 87% 30.24 in 6.2 mi NNE 11.5 mph - N/A   Mostly Cloudy
6:20 AM 32.0 °F 22.1 °F 28.4 °F 87% 30.27 in 6.2 mi NNE 13.8 mph - N/A   Mostly Cloudy
6:50 AM 32.0 °F 22.1 °F 28.4 °F 87% 30.27 in 6.2 mi North 13.8 mph - N/A   Mostly Cloudy
7:20 AM 32.0 °F 23.0 °F 28.4 °F 87% 30.30 in 6.2 mi North 11.5 mph - N/A   Mostly Cloudy
7:50 AM 33.8 °F 27.0 °F 28.4 °F 81% 30.30 in 6.2 mi NNE 8.1 mph - N/A   Mostly Cloudy
8:00 AM 33 °F - 28 °F 77% 30.34 in 6 mi NNE 8.1 mph - -   Mostly Cloudy
8:20 AM 33.8 °F 25.8 °F 28.4 °F 81% 30.33 in 6.2 mi NNE 10.4 mph - N/A   Mostly Cloudy
8:50 AM 33.8 °F 25.8 °F 28.4 °F 81% 30.33 in 6.2 mi NNE 10.4 mph - N/A   Mostly Cloudy
9:20 AM 33.8 °F 25.8 °F 28.4 °F 81% 30.36 in 6.2 mi NNE 10.4 mph - N/A   Mostly Cloudy
9:50 AM 33.8 °F 25.3 °F 28.4 °F 81% 30.36 in 6.2 mi North 11.5 mph - N/A   Mostly Cloudy
10:20 AM 33.8 °F 25.3 °F 28.4 °F 81% 30.36 in 6.2 mi North 11.5 mph - N/A   Mostly Cloudy
10:50 AM 35.6 °F 27.5 °F 28.4 °F 75% 30.36 in 6.2 mi NNE 11.5 mph - N/A   Mostly Cloudy
11:00 AM 35 °F - 28 °F 67% 30.40 in 6 mi NNE 11.5 mph - -   Mostly Cloudy
11:20 AM 35.6 °F 28.0 °F 28.4 °F 75% 30.39 in 6.2 mi NNE 10.4 mph - N/A   Mostly Cloudy
11:50 AM 35.6 °F 27.5 °F 28.4 °F 75% 30.39 in 6.2 mi NNE 11.5 mph - N/A   Mostly Cloudy
12:20 PM 37.4 °F 29.8 °F 28.4 °F 70% 30.39 in 6.2 mi NNE 11.5 mph - N/A   Mostly Cloudy
12:50 PM 35.6 °F 27.5 °F 28.4 °F 75% 30.39 in 6.2 mi North 11.5 mph - N/A   Mostly Cloudy
1:20 PM 35.6 °F 26.6 °F 28.4 °F 75% 30.39 in 6.2 mi North 13.8 mph - N/A   Mostly Cloudy
1:50 PM 35.6 °F 27.1 °F 28.4 °F 75% 30.39 in 6.2 mi NNE 12.7 mph - N/A   Mostly Cloudy
2:00 PM 36 °F - 28 °F 65% 30.42 in 6 mi NNE 12.7 mph - -   Mostly Cloudy
2:20 PM 35.6 °F 27.1 °F 28.4 °F 75% 30.39 in 6.2 mi NNE 12.7 mph - N/A   Mostly Cloudy
2:50 PM 35.6 °F 26.2 °F 28.4 °F 75% 30.42 in 6.2 mi NNE 15.0 mph - N/A   Mostly Cloudy
3:20 PM 35.6 °F 26.6 °F 28.4 °F 75% 30.42 in 6.2 mi NNE 13.8 mph - N/A   Mostly Cloudy
3:50 PM 35.6 °F 26.6 °F 28.4 °F 75% 30.42 in 6.2 mi NNE 13.8 mph - N/A   Mostly Cloudy
4:20 PM 35.6 °F 27.1 °F 28.4 °F 75% 30.42 in 6.2 mi NNE 12.7 mph - N/A   Mostly Cloudy
4:50 PM 33.8 °F 25.3 °F 28.4 °F 81% 30.45 in 6.2 mi NNE 11.5 mph - N/A   Mostly Cloudy
5:00 PM 35 °F - 28 °F 66% 30.46 in 6 mi NNE 11.5 mph - -   Mostly Cloudy
5:20 PM 33.8 °F 23.9 °F 28.4 °F 81% 30.45 in 6.2 mi NNE 15.0 mph - N/A   Mostly Cloudy
5:50 PM 33.8 °F 23.5 °F 28.4 °F 81% 30.45 in 6.2 mi NNE 16.1 mph - N/A   Mostly Cloudy
6:20 PM 33.8 °F 24.3 °F 28.4 °F 81% 30.45 in 6.2 mi NNE 13.8 mph - N/A   Mostly Cloudy
6:50 PM 33.8 °F 24.3 °F 28.4 °F 81% 30.45 in 6.2 mi NNE 13.8 mph - N/A   Mostly Cloudy
7:20 PM 33.8 °F 24.3 °F 28.4 °F 81% 30.48 in 6.2 mi NNE 13.8 mph - N/A   Mostly Cloudy
7:50 PM 33.8 °F 24.8 °F 28.4 °F 81% 30.48 in 6.2 mi NNE 12.7 mph - N/A   Mostly Cloudy
8:00 PM 33 °F - 28 °F 74% 30.50 in 6 mi NNE 12.7 mph - -   Mostly Cloudy
8:20 PM 33.8 °F 25.3 °F 28.4 °F 81% 30.48 in 6.2 mi NNE 11.5 mph - N/A   Mostly Cloudy
8:50 PM 33.8 °F 25.3 °F 28.4 °F 81% 30.48 in 6.2 mi NE 11.5 mph - N/A   Mostly Cloudy
9:20 PM 33.8 °F 24.3 °F 28.4 °F 81% 30.48 in 6.2 mi NE 13.8 mph - N/A   Mostly Cloudy
9:50 PM 33.8 °F 24.3 °F 28.4 °F 81% 30.48 in 6.2 mi NE 13.8 mph - N/A   Mostly Cloudy
10:20 PM 33.8 °F 23.9 °F 28.4 °F 81% 30.48 in 6.2 mi NE 15.0 mph - N/A   Mostly Cloudy
10:50 PM 33.8 °F 24.3 °F 28.4 °F 81% 30.48 in 6.2 mi NE 13.8 mph - N/A   Mostly Cloudy
11:00 PM 34 °F - 28 °F 71% 30.51 in 6 mi NE 13.8 mph - -   Mostly Cloudy
11:20 PM 33.8 °F 24.8 °F 28.4 °F 81% 30.48 in 6.2 mi NE 12.7 mph - N/A   Mostly Cloudy
11:50 PM 33.8 °F 24.8 °F 28.4 °F 81% 30.48 in 6.2 mi NE 12.7 mph - N/A   Mostly Cloudy